Location: Deurze
(52.9838°N, 6.6090°E)
Time: 19:24:23
(UTC+00:00)

NOSS 2-2 (E) - Pass Details

Date: 11 March 2026
Orbit: 382 x 1718 km, 63.3° (Epoch: 20 April)

Event Time Altitude Azimuth Distance (km) Brightness Sun altitude
Rises 19:51:09 0° 254° (WSW) 2,379 7.3 -21.5°
Reaches altitude 10° 19:53:26 10° 267° (W) 1,445 6.3 -21.8°
Maximum altitude 19:56:10 29° 330° (NNW) 749 4.5 -22.1°
Enters shadow 19:56:52 26° 356° (N) 811 4.4 -22.2°
